Location: Arrodets-la-Barthe
(43.0306°N, 0.2829°E)
Time: 02:34:33
(UTC+00:00)

NOAA 19 - Pass Details

Date: 04 April 2023
Orbit: 840 x 859 km, 99.1° (Epoch: 29 May)

Event Time Altitude Azimuth Distance (km) Brightness Sun altitude
Exits shadow 21:12:30 - 214° (SSW) 3,187 8.1 -27.9°
Reaches altitude 10° 21:15:09 10° 231° (SW) 2,463 7.7 -28.3°
Maximum altitude 21:18:28 16° 269° (W) 2,053 7.7 -28.7°
Drops below altitude 10° 21:21:48 10° 307° (NW) 2,468 8.6 -29.2°
Sets 21:25:09 0° 328° (NNW) 3,407 9.5 -29.6°
